Вернуться в каталог

STARLINK-33863

АктивенСвязьVLEO
NORAD 63864·PAYLOAD·🇺🇸 United States

Запущен May 10, 2025 с Vandenberg Space Force Base

Loading…

Ближайшие Пролёты (ближайшие 24 часа)

TLE

СвежийSource: CelesTrak SupGP

Эпоха: Sep 14, 2026, 21:35 UTC

1 63864C 25094A   26257.89979167 -.00005589  00000+0 -19443-3 0  2574
2 63864  69.9989 115.9291 0003152 272.2857  25.7452 15.29578293    18

Отслеживайте STARLINK-33863 в реальном времени с AllMySat

Download on the App Store